User: anonymous   Login
Location: Unspecified
(0.0000°N, 0.0000°E)
Time: 22:45:20
(UTC+00:00)
Language:

TSUBAME - Orbit

View from above orbital plane
View from above orbital plane
View from above satellite
View from above satellite

Ground track
Ground track

The orbit data is extracted from the following two-line orbital elements,

1 40302U 14070E   23083.66671326  .00022212  00000-0  82604-3 0  9996
2 40302  97.1294  99.7198 0029190 306.0534 163.9586 15.27117587464060
Epoch (UTC): 24 March 2023 16:00:04
Eccentricity: 0.0029190
inclination: 97.1294°
perigee height: 464 km
apogee height: 504 km
right ascension of ascending node: 99.7198°
argument of perigee: 306.0534°
revolutions per day: 15.27117587
mean anomaly at epoch: 163.9586°
orbit number at epoch: 46406

The dashed part of the orbit path shows where the satellite is in the earth's shadow,  

DLR